SCP
0 0 0 0 0 0 0 0 0 0 0 0 0 0 0 0 0 0 0 0 0 0 0 0 0 0 0 0 0 0 0 0 0 0 0 0 0 0 0 0 0 0 0 0
0 0 0 0 0 0 0 0 0 0 0 0 0 0 0 0 0 0 0 0 0 0 0 0 0 0 0 0 0 0 0 0 0 0 0 0 0 0 0 0 0 0 0 0
0 0 0 0 0 0 0 0 0 0 0 0 0 0 0 0 0 0 0 0 0 0 0 0 0 0 0 0 0 0 0 0 0 0 0 0 0 0 0 0 0 0 0 0
0 0 0 0 0 0 0 0 0 0 0 0 0 0 0 0 0 0 0 0 0 0 0 0 0 0 0 0 0 0 0 0 0 0 0 0 0 0 0 0 0 0 0 0
0 0 0 0 0 0 0 0 0 0 0 0 0 0 0 0 0 0 0 0 0 0 0 0 0 0 0 0 0 0 0 0 0 0 0 0 0 0 0 0 0 0 0 0
0 0 0 0 0 0 0 0 0 0 0 0 0 0 0 0 0 0 0 0 0 0 0 0 0 0 0 0 0 0 0 0 0 0 0 0 0 0 0 0 0 0 0 0
0 0 0 0 0 0 0 0 0 0 0 0 0 0 0 0 0 0 0 0 0 0 0 0 0 0 0 0 0 0 0 0 0 0 0 0 0 0 0 0 0 0 0 0
0 0 0 0 0 0 0 0 0 0 0 0 0 0 0 0 0 0 0 0 0 0 0 0 0 0 0 0 0 0 0 0 0 0 0 0 0 0 0 0 0 0 0 0
0 0 0 0 0 0 0 0 0 0 0 0 0 0 0 0 0 0 0 0 0 0 0 0 0 0 0 0 0 0 0 0 0 0 0 0 0 0 0 0 0 0 0 0
0 0 0 0 0 0 0 0 0 0 0 0 0 0 0 0 0 0 0 0 0 0 0 0 0 0 0 0 0 0 0 0 0 0 0 0 0 0 0 0 0 0 0 0
0 0 0 0 0 0 0 0 0 0 0 0 0 0 0 0 0 0 0 0 0 0 0 0 0 0 0 0 0 0 0 0 0 0 0 0 0 0 0 0 0 0 0 0
0 0 0 0 0 0 0 0 0 0 0 0 0 0 0 0 0 0 0 0 0 0 0 0 0 0 0 0 0 0 0 0 0 0 0 0 0 0 0 0 0 0 0 0
0 0 0 0 0 0 0 0 0 0 0 0 0 0 0 0 0 0 0 0 0 0 0 0 0 0 0 0 0 0 0 0 0 0 0 0 0 0 0 0 0 0 0 0
0 0 0 0 0 0 0 0 0 0 0 0 0 0 0 0 0 0 0 0 0 0 0 0 0 0 0 0 0 0 0 0 0 0 0 0 0 0 0 0 0 0 0 0
0 0 0 0 0 0 0 0 0 0 0 0 0 0 0 0 0 0 0 0 0 0 0 0 0 0 0 0 0 0 0 0 0 0 0 0 0 0 0 0 0 0 0 0
0 0 0 0 0 0 0 0 0 0 0 0 0 0 0 0 0 0 0 0 0 0 0 0 0 0 0 0 0 0 0 0 0 0 0 0 0 0 0 0 0 0 0 0
0 0 0 0 0 0 0 0 0 0 0 0 0 0 0 0 0 0 0 0 0 0 0 0 0 0 0 0 0 0 0 0 0 0 0 0 0 0 0 0 0 0 0 0
0 0 0 0 0 0 0 0 0 0 0 0 0 0 0 0 0 0 0 0 0 0 0 0 0 0 0 0 0 0 0 0 0 0 0 0 0 0 0 0 0 0 0 0
0 0 0 0 0 0 0 0 0 0 0 0 0 0 0 0 0 0 0 0 0 0 0 0 0 0 0 0 0 0 0 0 0 0 0 0 0 0 0 0 0 0 0 0
0 0 0 0 0 0 0 0 0 0 0 0 0 0 0 0 0 0 0 0 0 0 0 0 0 0 0 0 0 0 0 0 0 0 0 0 0 0 0 0 0 0 0 0
0 0 0 0 0 0 0 0 0 0 0 0 0 0 0 0 0 0 0 0 0 0 0 0 0 0 0 0 0 0 0 0 0 0 0 0 0 0 0 0 0 0 0 0
0 0 0 0 0 0 0 0 0 0 0 0 0 0 0 0 0 0 0 0 0 0 0 0 0 0 0 0 0 0 0 0 0 0 0 0 0 0 0 0 0 0 0 0
0 0 0 0 0 0 0 0 0 0 0 0 0 0 0 0 0 0 0 0 0 0 0 0 0 0 0 0 0 0 0 0 0 0 0 0 0 0 0 0 0 0 0 0
0 0 0 0 0 0 0 0 0 0 0 0 0 0 0 0 0 0 0 0 0 0 0 0 0 0 0 0 0 0 0 0 0 0 0 0 0 0 0 0 0 0 0 0
0 0 0 0 0 0 0 0 0 0 0 0 0 0 0 0 0 0 0 0 0 0 0 0 0 0 0 0 0 0 0 0 0 0 0 0 0 0 0 0 0 0 0 0
0 0 0 0 0 0 0 0 0 0 0 0 0 0 0 0 0 0 0 0 0 0 0 0 0 0 0 0 0 0 0 0 0 0 0 0 0 0 0 0 0 0 0 0
Wind_Speed
3 4 7 12 12 7 6 6 5 6 4 7 10 13 11 7 8 10 11 13 15 15 8 9 8 8 8 8 8 9 10 10 9 8 6 7 6 5 6 5 7 7 8 8
4 7 13 7 5 4 4 5 7 6 3 6 7 12 12 7 10 13 15 18 19 13 10 12 11 10 10 10 10 10 11 11 9 5 5 5 6 5 5 5 6 7 7 7
12 8 5 8 6 6 7 9 9 7 3 2 4 9 9 10 8 9 12 14 14 18 20 17 15 13 12 12 12 11 12 11 9 9 9 10 7 5 4 5 5 5 7 7
9 6 5 6 9 10 9 8 8 6 3 6 4 8 8 8 9 12 16 14 16 16 18 17 17 16 14 12 10 11 10 10 11 12 13 15 9 7 5 4 5 6 6 7
11 8 9 10 10 13 9 4 5 4 5 5 4 8 9 5 9 13 17 19 19 17 19 20 19 17 12 11 11 10 10 11 12 11 11 12 10 8 8 6 8 7 6 6
6 6 9 10 6 8 6 6 6 5 2 7 10 11 11 9 12 12 15 17 17 15 17 16 13 12 11 10 11 11 12 11 12 11 10 12 16 15 14 11 9 7 5 5
5 6 4 4 7 4 6 7 2 3 3 11 6 10 13 12 12 14 16 14 11 12 15 16 18 18 16 15 14 13 14 13 13 13 11 11 15 18 18 15 12 10 7 5
9 9 11 9 11 11 10 13 11 9 9 8 4 13 12 9 8 9 10 10 6 11 15 18 20 19 18 17 15 15 15 14 14 14 12 10 11 11 10 10 11 10 7 6
13 10 5 9 6 15 9 9 8 5 2 5 10 10 10 5 8 11 12 8 8 12 15 17 17 17 17 17 17 16 16 14 15 14 13 12 11 9 10 10 8 7 7 7
9 6 3 3 3 3 9 9 6 7 6 9 10 10 9 9 13 13 11 12 11 10 12 14 15 16 15 14 12 13 14 15 14 14 14 13 11 10 11 11 11 10 9 9
8 8 3 4 12 14 10 8 8 7 7 7 10 13 10 13 12 12 14 14 10 12 14 14 13 12 12 11 12 13 13 13 13 14 13 13 12 10 11 11 11 11 9 10
10 6 6 8 6 4 7 10 11 10 9 8 11 14 6 9 8 9 11 9 7 10 11 11 11 12 12 13 14 14 14 14 14 13 13 14 13 12 12 12 11 11 11 10
11 7 4 4 4 3 7 7 10 7 6 9 13 14 1 1 5 7 9 7 6 9 11 11 12 14 15 15 15 15 15 14 13 13 14 14 14 14 14 13 12 11 11 10
11 9 13 19 10 11 11 12 14 13 11 15 22 21 6 5 7 7 7 6 7 9 12 14 15 16 16 16 16 16 15 14 14 14 15 16 16 15 14 13 12 12 11 11
9 11 14 17 9 9 12 15 19 23 24 20 23 25 18 11 13 11 8 6 7 10 13 17 18 17 17 17 17 17 16 16 16 16 16 16 13 12 12 12 12 11 11 11
10 10 11 17 13 9 8 15 23 28 22 26 26 35 14 8 10 11 12 11 12 14 18 20 19 19 20 21 20 19 19 18 17 17 16 13 13 13 13 13 12 12 11 9
8 9 10 17 13 7 19 28 21 17 16 14 27 36 12 11 14 18 17 14 16 18 20 21 22 23 23 23 22 22 20 16 16 15 13 13 14 14 13 12 12 13 12 10
13 11 8 8 11 23 21 14 19 23 23 20 20 18 10 16 18 17 14 14 18 19 18 18 19 20 19 17 16 14 13 15 15 14 14 14 14 14 12 12 13 12 9 10
17 15 10 10 18 16 16 8 14 19 26 28 29 28 23 14 10 17 13 15 18 17 16 17 18 18 16 16 16 15 15 15 15 16 16 15 15 14 14 14 13 10 9 10
17 17 13 13 12 13 13 6 10 12 20 16 18 26 25 13 14 23 12 12 15 13 11 11 10 10 13 15 16 17 16 16 18 18 16 14 14 15 15 15 12 8 9 10
14 15 20 20 17 11 8 5 10 13 15 4 12 17 15 13 17 10 3 4 7 6 5 6 9 11 13 15 17 17 17 19 17 13 12 13 14 14 13 11 9 8 8 7
11 10 12 12 15 14 7 10 14 9 2 2 2 3 5 6 5 4 3 2 1 1 3 6 8 8 10 14 16 16 17 14 11 12 13 13 12 11 9 10 9 9 9 8
10 10 7 9 8 3 7 6 3 2 3 2 2 1 2 2 2 1 1 2 3 3 4 4 8 8 7 10 12 14 10 11 12 12 12 10 10 9 9 10 10 8 8 7
6 3 4 5 6 3 3 2 2 2 2 2 1 1 2 2 1 1 2 2 3 4 4 5 8 9 6 5 6 7 9 11 12 12 10 9 9 8 7 6 7 8 8 8
6 6 5 6 3 1 5 6 5 3 2 2 2 2 2 3 2 2 2 3 3 3 3 4 6 8 7 7 7 7 9 11 10 9 8 8 7 8 7 5 5 7 5 7
6 7 7 6 5 6 4 4 7 6 4 4 3 2 2 2 3 3 3 3 3 4 4 5 6 7 7 7 7 6 6 9 10 8 7 6 6 5 6 6 3 5 6 8
Wind_Direction
114 110 194 203 197 192 179 189 225 252 225 183 222 247 257 197 217 231 225 218 219 218 197 184 185 180 174 170 165 160 152 150 142 135 127 116 104 96 85 76 80 87 91 93
85 233 224 198 199 217 224 245 262 279 248 199 242 258 260 217 213 222 222 220 219 206 188 191 188 184 182 179 175 171 165 163 161 143 128 119 118 101 87 83 75 76 87 94
184 221 193 168 189 203 228 225 237 248 304 271 293 287 255 247 226 236 232 226 218 204 197 191 190 189 185 185 181 176 171 167 153 138 126 118 107 99 88 89 79 70 82 86
221 228 157 171 197 189 237 220 215 225 224 260 215 271 256 243 243 241 240 232 224 210 197 190 189 189 190 186 178 174 169 160 151 150 149 146 144 140 139 132 111 91 84 91
221 194 182 195 200 180 213 194 188 206 212 258 226 254 265 236 248 249 242 235 228 211 196 192 190 188 182 176 174 170 161 158 158 161 159 146 135 128 130 122 113 104 91 89
227 204 198 204 180 169 137 78 56 46 89 256 218 225 259 206 217 235 242 237 227 207 195 190 181 172 172 171 170 167 163 163 163 161 161 151 144 143 143 142 134 125 114 102
239 231 222 154 125 128 137 114 34 305 261 246 213 226 248 219 218 224 241 247 226 198 185 180 177 178 177 176 174 171 168 167 167 163 162 160 155 153 154 153 149 145 140 135
193 238 204 191 169 167 184 163 176 206 230 262 244 236 250 241 250 258 261 266 232 191 185 186 185 182 179 178 175 174 174 170 169 167 164 161 158 156 155 155 153 152 150 145
195 231 206 201 179 153 170 208 182 170 252 270 255 263 289 256 265 259 259 263 229 196 190 188 184 182 179 179 179 177 174 171 172 168 163 164 164 160 156 152 148 147 145 144
170 216 216 171 111 197 159 154 132 175 215 251 261 245 236 216 229 237 244 243 229 198 189 186 184 183 182 179 174 173 175 174 171 168 168 169 168 162 158 155 156 155 152 147
189 198 189 165 192 185 159 173 179 176 184 198 264 255 211 204 214 223 236 238 220 194 191 188 186 181 177 172 173 176 176 171 171 172 169 165 167 163 160 162 163 160 155 155
195 183 214 223 234 219 195 184 168 179 214 211 249 261 193 201 222 226 242 243 206 191 187 182 177 174 178 181 181 182 181 178 176 172 169 168 167 165 166 167 166 162 160 162
160 166 217 291 254 217 211 206 203 203 188 210 236 261 259 233 253 244 245 240 196 181 177 175 178 184 187 188 187 187 185 181 174 171 169 169 171 171 173 171 167 166 164 163
169 169 202 222 205 178 199 208 202 197 221 235 239 253 214 230 242 246 241 226 194 187 184 185 190 193 192 191 190 189 188 181 175 174 174 177 179 177 174 170 169 170 169 168
181 203 221 237 214 179 198 206 208 213 222 231 247 252 242 214 231 238 234 214 195 196 196 198 199 197 193 192 192 190 187 182 179 178 182 183 177 172 168 170 171 171 173 176
191 208 218 242 230 207 220 224 217 220 229 237 252 257 248 224 230 239 232 215 209 209 209 208 204 199 197 195 193 189 188 184 181 184 185 177 172 172 174 174 172 173 176 174
192 193 204 240 231 218 236 231 220 220 221 218 240 253 250 233 231 236 234 219 216 217 215 211 206 203 201 197 192 191 187 177 180 184 178 174 175 178 179 175 175 180 180 176
196 199 213 234 215 231 241 227 210 222 232 227 242 255 236 230 240 243 235 224 227 225 221 215 210 207 202 192 185 178 168 172 179 180 179 177 177 180 176 177 184 184 178 183
204 205 214 225 240 250 262 217 192 209 237 230 235 249 252 246 275 269 243 231 235 229 222 216 209 202 189 181 173 164 168 171 178 184 185 182 180 179 179 186 189 184 179 187
207 210 219 225 232 232 245 205 176 175 246 234 218 240 249 242 250 262 252 232 236 233 222 210 190 173 168 167 158 162 170 175 187 190 186 180 179 182 187 191 187 180 184 192
201 210 222 231 239 243 242 172 135 180 238 215 203 227 239 227 236 271 316 256 240 230 209 173 158 163 165 157 158 167 173 188 189 176 171 175 182 187 188 183 177 174 180 181
196 208 219 224 235 240 182 152 180 206 152 161 215 241 241 244 270 308 310 297 304 115 123 139 143 145 146 153 160 171 185 183 159 161 171 177 181 181 176 174 175 174 177 185
205 200 195 206 224 237 172 189 190 136 162 183 213 253 228 237 267 330 18 36 48 77 94 105 120 119 130 154 163 173 171 146 150 160 170 171 170 173 171 174 174 171 176 188
226 187 182 214 233 218 217 231 208 184 173 168 192 192 179 188 167 123 97 78 69 67 76 96 113 119 120 127 135 141 137 142 148 157 160 160 163 164 162 167 169 174 181 189
199 172 192 222 230 275 247 221 203 184 162 136 107 110 137 141 145 149 134 118 103 89 77 99 117 121 116 108 104 115 132 137 141 144 146 149 153 156 157 159 174 178 185 188
185 180 186 216 202 192 219 196 179 176 175 165 140 112 101 143 152 139 134 128 123 117 109 108 108 114 115 113 110 115 130 137 137 139 145 148 147 147 149 148 137 187 179 196